Mont-De-Marsan, France

9:55 AM CET on February 23, 2018 (GMT +0100)
Mont-de-Marsan Air Base

Weather History for LFBM - March, 2013

Change the Weather History Date:

Sunday, March 24, 2013

  Actual Average Record
Temperature  
Mean Temperature 54 °F -  
Max Temperature 65 °F 59 °F 73 °F (2012)
Min Temperature 42 °F 42 °F 31 °F (2017)
Degree Days  
Heating Degree Days 12    
Growing Degree Days 4 (Base 50)    
Moisture  
Dew Point 46 °F    
Average Humidity 81    
Maximum Humidity 100    
Minimum Humidity 40    
Precipitation  
Precipitation 0.12 in - - ()
Sea Level Pressure  
Sea Level Pressure 29.57 in    
Wind  
Wind Speed 5 mph ()    
Max Wind Speed 12 mph    
Max Gust Speed -    
Visibility 4.6 miles    
Events Fog , Rain , Thunderstorm    
Averages and records for this station are not official NWS values.
T = Trace of Precipitation, MM = Missing Value Source: Averaged Metar Reports

Daily Weather History Graph

Daily Weather History Graph

Search for Another Location

Airport or City:

Trip Planner

Search our weather history database for the weather conditions in past years. The results will help you decide how hot, cold, wet, or windy it might be!

Date:

Astronomy

Mar. 24, 2013 Rise Set
Actual Time 6:57 AM CET 7:19 PM CET
Civil Twilight 6:29 AM CET 7:48 PM CET
Nautical Twilight 5:55 AM CET 8:22 PM CET
Astronomical Twilight 5:20 AM CET 8:57 PM CET
Moon 4:27 PM CET (3/24) 5:05 AM CET (3/24)
Length of Visible Light 13h 19m
Length of Day
12h 21m
Waxing Gibbous, 90% of the Moon is Illuminated
Mar 24
Waxing Gibbous
Mar 27
Full
Apr 3
Last Quarter
Apr 10
New
Apr 18
First Quarter

Hourly Weather History & Observations

Time (CET) Temp. Windchill Dew Point Humidity Pressure Visibility Wind Dir Wind Speed Gust Speed Precip Events Conditions
12:00 AM 50.0 °F - 48.2 °F 94% 29.56 in 6.2 mi East 5.8 mph - N/A   Unknown
12:30 AM 50.0 °F - 46.4 °F 87% 29.56 in 6.2 mi East 4.6 mph - N/A   Unknown
1:00 AM 48 °F - 46 °F 91% 29.58 in 9 mi ENE 4.6 mph - -   Clear
1:00 AM 48.2 °F - 46.4 °F 93% 29.56 in 6.2 mi ENE 4.6 mph - N/A   Unknown
1:30 AM 48.2 °F - 46.4 °F 93% 29.56 in 6.2 mi East 4.6 mph - N/A   Unknown
2:00 AM 46.4 °F 43.5 °F 44.6 °F 93% 29.53 in 5.6 mi ENE 5.8 mph - N/A   Unknown
2:30 AM 46.4 °F - 44.6 °F 93% 29.56 in 1.2 mi East 2.3 mph - N/A   Mist
3:00 AM 46.4 °F - 46.4 °F 100% 29.53 in - NE 2.3 mph - N/A   Mist
3:30 AM 44.6 °F 43.1 °F 44.6 °F 100% 29.53 in 0.2 mi ENE 3.5 mph - N/A Fog Fog
4:00 AM 42.8 °F 39.3 °F 41.0 °F 93% 29.53 in 4.3 mi ENE 5.8 mph - N/A   Unknown
4:30 AM 42.8 °F 40.1 °F 41.0 °F 93% 29.53 in 0.2 mi ENE 4.6 mph - N/A Fog Fog
5:00 AM 44.6 °F 43.1 °F 42.8 °F 93% 29.53 in 0.1 mi East 3.5 mph - N/A Fog Fog
5:30 AM 42.8 °F 40.1 °F 42.8 °F 100% 29.53 in 0.1 mi East 4.6 mph - N/A Fog Fog
6:00 AM 44.6 °F 41.4 °F 42.8 °F 93% 29.53 in 0.2 mi East 5.8 mph - N/A Fog Fog
6:30 AM 44.6 °F 40.2 °F 44.6 °F 100% 29.53 in 0.2 mi East 8.1 mph - N/A Fog Fog
7:00 AM 46 °F - 45 °F 94% 29.57 in 0 mi East 5.8 mph - - Fog Heavy Fog
7:00 AM 46.4 °F 43.5 °F 44.6 °F 93% 29.53 in 0.2 mi East 5.8 mph - N/A Fog Fog
7:30 AM 46.4 °F 45.2 °F 44.6 °F 93% 29.56 in 0.2 mi ESE 3.5 mph - N/A Fog Fog
8:00 AM 46.4 °F 44.3 °F 44.6 °F 93% 29.56 in 0.3 mi SE 4.6 mph - N/A Fog Fog
8:30 AM 46.4 °F 42.9 °F 46.4 °F 100% 29.56 in 0.3 mi East 6.9 mph - N/A Fog Fog
9:00 AM 46.4 °F 44.3 °F 46.4 °F 100% 29.56 in 0.9 mi ESE 4.6 mph - N/A   Overcast
9:30 AM 46.4 °F 44.3 °F 46.4 °F 100% 29.56 in 1.5 mi ESE 4.6 mph - N/A   Overcast
10:00 AM 48.2 °F - 48.2 °F 100% 29.56 in 4.3 mi ESE 5.8 mph - N/A   Overcast
10:30 AM 48.2 °F - 48.2 °F 100% 29.59 in 6.2 mi Variable 3.5 mph - N/A   Overcast
11:00 AM 48.2 °F - 48.2 °F 100% 29.59 in 6.2 mi Variable 3.5 mph - N/A   Overcast
11:30 AM 50.0 °F - 50.0 °F 100% 29.59 in 6.2 mi Variable 2.3 mph - N/A   Overcast
12:00 PM 51.8 °F - 48.2 °F 88% 29.56 in 6.2 mi Variable 1.2 mph - N/A   Mostly Cloudy
12:30 PM 55.4 °F - 50.0 °F 82% 29.56 in 6.2 mi Variable 1.2 mph - N/A   Partly Cloudy
1:00 PM 59 °F - 49 °F 62% 29.57 in 12 mi NE 3.5 mph - -   Clear
1:00 PM 59.0 °F - 50.0 °F 72% 29.56 in 6.2 mi NE 3.5 mph - N/A   Unknown
1:30 PM 60.8 °F - 48.2 °F 63% 29.56 in 6.2 mi Variable 2.3 mph - N/A   Unknown
2:00 PM 64.4 °F - 50.0 °F 59% 29.56 in 6.2 mi Variable 3.5 mph - N/A   Unknown
2:30 PM 64.4 °F - 44.6 °F 49% 29.53 in 6.2 mi Variable 4.6 mph - N/A   Unknown
3:00 PM 66.2 °F - 42.8 °F 43% 29.53 in 6.2 mi Variable 4.6 mph - N/A   Unknown
3:30 PM 60.8 °F - 48.2 °F 63% 29.53 in 6.2 mi WNW 10.4 mph - N/A Thunderstorm Unknown
4:00 PM 59.0 °F - 51.8 °F 77% 29.56 in 6.2 mi West 5.8 mph - N/A Rain , Thunderstorm Light Rain
4:30 PM 59.0 °F - 48.2 °F 67% 29.56 in 3.7 mi Variable 2.3 mph - N/A Rain Light Rain
5:00 PM 60.8 °F - 48.2 °F 63% 29.56 in 6.2 mi SSE 2.3 mph - N/A   Unknown
5:30 PM 62.6 °F - 46.4 °F 55% 29.56 in 6.2 mi Calm Calm - N/A   Unknown
6:00 PM 62.6 °F - 48.2 °F 59% 29.56 in 6.2 mi Variable 2.3 mph - N/A   Unknown
6:30 PM 60.8 °F - 44.6 °F 55% 29.59 in 6.2 mi West 5.8 mph - N/A   Unknown
7:00 PM 61 °F - 43 °F 40% 29.60 in 37 mi WNW 9.2 mph - -   Clear
7:00 PM 60.8 °F - 42.8 °F 52% 29.59 in 6.2 mi WNW 9.2 mph - N/A   Unknown
7:30 PM 57.2 °F - 44.6 °F 63% 29.59 in 6.2 mi WNW 11.5 mph - N/A   Unknown
8:00 PM 55.4 °F - 42.8 °F 63% 29.62 in 6.2 mi NW 6.9 mph - N/A   Unknown
8:30 PM 53.6 °F - 42.8 °F 67% 29.65 in 6.2 mi NNW 4.6 mph - N/A   Partly Cloudy
9:00 PM 53.6 °F - 42.8 °F 67% 29.65 in 6.2 mi WSW 6.9 mph - N/A   Unknown
9:30 PM 53.6 °F - 44.6 °F 72% 29.68 in 6.2 mi West 11.5 mph - N/A   Unknown
10:00 PM 51.8 °F - 46.4 °F 82% 29.68 in 6.2 mi WSW 9.2 mph - N/A   Unknown
10:30 PM 51.8 °F - 46.4 °F 82% 29.68 in 6.2 mi WSW 8.1 mph - N/A   Unknown
11:00 PM 51.8 °F - 48.2 °F 88% 29.68 in 6.2 mi WSW 8.1 mph - N/A   Scattered Clouds
11:30 PM 51.8 °F - 48.2 °F 88% 29.68 in 6.2 mi SW 5.8 mph - N/A   Mostly Cloudy